STARLINK-37082, 68182

Orbit data source: Space-Track

STARLINK-37082, 68182 is a payload satellite owned by SpaceX/Seattle (US) in LEO that was launched on Sat, 14 Mar 2026 UTC via an FALCON 9 launch vehicle from the Air Force Eastern Test Range (AFETR). Payload-class satellites include a variety of spacecraft equipped with specific instruments for various scientific and technological missions. These include communications satellites like Starlink; space stations such as the ISS; scientific satellites like the Hubble; Earth observation satellites from companies like Planet Labs, Umbra, and HawkEye 360; GPS; miniature CubeSats for education and research; and military/defense satellites.

Loading next visibility...
Identifier
68182, 2026-050R
Orbit
LEO
Country
Flag of USUS
Related business
Manufacturer
SpaceX/Seattle
Mission
Operational spacecraft
Bus & Motor
STARLINK V2MO, Unknown motor
Mass
575 kg wet, ~530 kg dry
Launch date (UTC)
2026-03-14 (3 months ago)
Launch vehicle
FALCON 9
Launch site
Air Force Eastern Test Range (AFETR)
Object type
Payload
Rocket body
Debris
Shape & HBR
Unknown shape, 17.7 m
Radar Cross Section
Large (>1 m²)

Expand to show TLE details & history
Last TLE update: 13 hours ago

TLE from 13 hours ago
0 STARLINK-37082
1 68182U 26050R   26171.31878529  .00020870  00000-0  62738-3 0  9994
2 68182  53.1585 148.8126 0001170  81.0875 279.0260 15.34386040 16414
Epoch: 2026-06-20T07:39Z
TLE epoch observation values (Epoch: 2026-06-20T07:39:03.049Z)
Latitude
Longitude
125.51478°
Altitude
463.52 km
Speed
7.636 km/s
True Right ascension
09h 55m 15s
True Declination
0° 00' 00"
Sunlit
Object was in daylight at epoch
Visualization orbit readout
Latitude
Unknown
Longitude
Unknown
Altitude
Unknown
Speed
Unknown
Apparent Right ascension
Unknown
Apparent Declination
Unknown
Sunlit
N/A
Visualization observer readout
Local Sidereal Time
07:21:32
Azimuth
Unknown
Elevation
Unknown
Doppler factor
Unknown
Orbital elements
Apogee altitude
463.802 km
Perigee altitude
462.201 km
Semi-major axis
6,841.139 km
Eccentricity
0.00012
Inclination
53.1585°
RAAN
148.8126°
Arg. of periapsis
81.0875°
True anomaly
279.01276°
Mean anomaly
279.026°
Eccentric anomaly
279.01938°
Mean motion
3.83575 °/min
Orbital period
93.85 mins
BSTAR
0.00062738
Loading maneuver chart data...
Computing Atmospheric mass density...
Loading historical data...
Loading historical data...
Loading historical data...
Loading historical data...
Loading historical data...
Loading historical data...
Loading historical data...

Documentation

Showing up to 5 results
|